Regional Weather Roundup
Issued by NWS State College, PA

Home | Current Version | Previous Version | Text Only | Print | Product List | Glossary Off
Versions: 1 2 3 4 5 6 7 8 9 10 11 12 13 14 15 16 17 18 19 20 21 22 23 24 25 26 27 28 29 30 31 32 33 34 35 36 37 38 39 40 41 42 43 44 45 46 47 48 49 50

000
ASUS41 KCTP 282103
RWRCTP

REGIONAL WEATHER ROUNDUP
NATIONAL WEATHER SERVICE STATE COLLEGE PA
400 PM EST FRI NOV 28 2014

Note: "fair" indicates few or no clouds below 12,000 feet with no
significant weather and/or obstructions to visibility.

* = STATION THAT DOES NOT REPORT PRECIPITATION /E.G. RAIN...SNOW...ETC/
    THUNDER OR FOG.

PAZ002>004-007>009-013>016-020>023-029>032-282200-
WESTERN PENNSYLVANIA

CITY           SKY/WX    TMP DP  RH WIND       PRES   REMARKS
ERIE           CLOUDY    27  15  61 SW6       30.23S
MEADVILLE      CLOUDY    23  13  65 SW6       30.20S
FRANKLIN*      CLOUDY    23  12  63 SW6       30.21S
NEW CASTLE       N/A     25  14  62 CALM      30.25S
BEAVER COUNTY  NOT AVBL
BUTLER*        CLOUDY    27  14  59 S10       30.23F
PITTSBURGH INT MOCLDY    27  15  61 SW10      30.23F
PITTSBURGH     PTCLDY    27  14  58 W9        30.23S
INDIANA*       PTCLDY    27  14  59 W8        30.25S
LATROBE        PTCLDY    27  16  63 SW5       30.25F
WASHINGTON CO* CLOUDY    27  16  63 SW9       30.25F
$$

PAZ004>006-010>012-017>019-024>028-033>037-041-042-045-046-049>053-282200-
CENTRAL PENNSYLVANIA

CITY           SKY/WX    TMP DP  RH WIND       PRES   REMARKS
BRADFORD       PTCLDY    21   9  59 W5        30.13R WCI  15
DUBOIS         CLOUDY    23  13  65 W13       30.17R WCI  11
CLEARFIELD     CLOUDY    25  12  58 W9        30.19S
JOHNSTOWN      PTCLDY    22  10  60 W13       30.14F WCI  10
ALTOONA        PTCLDY    25  13  60 W9        30.20S
STATE COLLEGE  MOCLDY    27  14  59 W13       30.20S
WILLIAMSPORT   CLEAR     33  10  38 W8        30.20R
SELINSGROVE    CLEAR     32  14  47 NW5       30.22S
FT INDIANTOWN  PTCLDY    33  14  45 W10       30.23S
CAPITAL CITY   PTCLDY    34  14  43 W8        30.24S
HARRISBURG     PTCLDY    32  16  51 NW12      30.24R
YORK           CLEAR     33  16  49 W6        30.24R
$$

PAZ038>040-043-044-047-048-054-055-060>062-067>071-282200-
EASTERN PENNSYLVANIA

CITY           SKY/WX    TMP DP  RH WIND       PRES   REMARKS
SCRANTON       CLEAR     26  11  52 NW12G18   30.18S
MOUNT POCONO   CLEAR     23   9  55 NW12      30.10S WCI  12
ALLENTOWN      CLOUDY    32  14  47 W9G17     30.22R
QUAKERTOWN*    CLEAR     32  16  51 NW7       30.22R
READING        PTCLDY    33  17  51 NW12      30.23R
LANCASTER      PTCLDY    32  17  54 NW9       30.23S
COATESVILLE    CLEAR     32  18  55 NW9       30.22S
POTTSTOWN      CLEAR     31  17  56 NW6       30.24R
BLUE BELL      PTCLDY    34  19  55 CALM      30.22R
DOYLESTOWN     CLEAR     31  15  52 W10       30.21R
WILLOW GROVE   NOT AVBL
NORTH PHILA    PTCLDY    36  13  38 NW15G21   30.24R
PHILADELPHIA   PTCLDY    37  15  40 W17G26    30.24R
$$


USA.gov is the U.S. government's official web portal to all federal, state and local government web resources and services.